Home > Weather > Shymkent > Past weeks

Flag for Kazakhstan Past Weather in Shymkent, Kazakhstan — Yesterday and Last 2 Weeks

Now
70 °F

Passing clouds.


Feels Like: 70 °F
Forecast: 66 / 91 °F
Wind: 3 mph from Southeast

Location: Shymkent Airport

Current Time: Jun 1, 2016 at 12:04:21 AM

Latest Report: May 31, 2016 at 11:30 PM


Visibility: N/A

Pressure: 29.74 "Hg (28.04 "Hg at 506m altitude)

Humidity: 50%

Dew Point: 50 °F

Location of ShymkentLocation

Past Weather in Shymkent — Graph

°F

Shymkent Temperature Yesterday

Maximum temperature yesterday: 91 °F (at 3:30 PM)
Minimum temperature yesterday: 59 °F (at 5:00 AM)
Average temperature yesterday: 78 °F

High & Low Weather Summary for the Past Weeks

 TemperatureHumidityPressure
High91 °F (May 21, 2:00 PM)100% (May 17, 9:00 PM)30.09 "Hg (May 17, 9:00 PM)
Low52 °F (May 19, 4:30 AM)11% (May 21, 2:00 PM)29.62 "Hg (May 26, 3:00 AM)
Average73 °F48%29.86 "Hg
* Reported May 16 10:00 PM — May 31 10:30 PM, Shymkent, Weather by CustomWeather, © 2016

Note: Actual official high and low records may vary slightly from our data, if they occured in-between our weather recording intervals... More about our weather records

Advertising

Shymkent Weather History for the Previous 24 Hours

Scroll right to see more
 ConditionsComfort  
Time TempWeatherWind HumidityBarometerVisibility
10:30 PM
Tue, May 31
79 °FClear.3 mph32%29.77 "Hg10 mi
10:00 PM75 °FClear.3 mph41%29.77 "Hg10 mi
9:30 PM79 °FClear.3 mph34%29.74 "Hg10 mi
9:00 PM81 °FClear.3 mph30%29.74 "Hg10 mi
8:30 PM82 °FSunny.3 mph26%29.74 "Hg10 mi
8:00 PM82 °FSunny.1 mph30%29.74 "Hg10 mi
7:30 PM86 °FSunny.1 mph20%29.74 "Hg10 mi
7:00 PM86 °FSunny.3 mph24%29.74 "Hg10 mi
6:30 PM88 °FPassing clouds.3 mph17%29.74 "HgN/A
6:00 PM90 °FSunny.3 mph15%29.74 "Hg10 mi
5:30 PM90 °FSunny.1 mph14%29.74 "Hg10 mi
5:00 PM90 °FPassing clouds.3 mph15%29.74 "HgN/A
4:30 PM90 °FPassing clouds.3 mph17%29.74 "HgN/A
4:00 PM90 °FPassing clouds.3 mph15%29.74 "HgN/A
3:30 PM91 °FSunny.1 mph16%29.77 "Hg10 mi
3:00 PM90 °FSunny.3 mph15%29.74 "Hg10 mi
2:30 PM90 °FPassing clouds.6 mph14%29.77 "HgN/A
2:00 PM90 °FSunny.10 mph15%29.77 "Hg10 mi
1:30 PM90 °FSunny.8 mph16%29.77 "Hg10 mi
1:00 PM88 °FSunny.10 mph21%29.77 "Hg10 mi
12:30 PM88 °FSunny.3 mph16%29.77 "Hg10 mi
12:00 PM88 °FSunny.No wind18%29.80 "Hg10 mi
11:30 AM88 °FSunny.1 mph18%29.80 "Hg10 mi
11:00 AM86 °FSunny.1 mph25%29.80 "Hg10 mi
10:30 AM84 °FPassing clouds.3 mph25%29.80 "HgN/A
10:00 AM84 °FPassing clouds.3 mph25%29.80 "HgN/A
9:30 AM82 °FClear.1 mph28%29.80 "Hg5 mi
9:00 AM79 °FClear.3 mph34%29.80 "Hg5 mi
8:30 AM75 °FClear.6 mph47%29.80 "Hg5 mi
8:00 AM72 °FClear.8 mph50%29.80 "Hg5 mi
7:30 AM68 °FClear.3 mph56%29.80 "Hg5 mi
7:00 AM64 °FSunny.1 mph64%29.80 "Hg10 mi
6:30 AM63 °FSunny.3 mph64%29.80 "Hg10 mi
6:00 AM59 °FSunny.6 mph72%29.80 "Hg10 mi
5:30 AM63 °FClear.3 mph64%29.77 "Hg10 mi
5:00 AM59 °FClear.6 mph72%29.77 "Hg10 mi
4:30 AM61 °FClear.6 mph68%29.77 "Hg10 mi
4:00 AM61 °FClear.3 mph68%29.77 "Hg10 mi
3:30 AM63 °FClear.1 mph64%29.77 "Hg10 mi
3:00 AM64 °FClear.No wind60%29.77 "Hg10 mi
2:30 AM64 °FPassing clouds.3 mph60%29.77 "HgN/A
2:00 AM64 °FClear.6 mph60%29.80 "Hg10 mi
1:30 AM66 °FClear.6 mph56%29.80 "Hg10 mi
1:00 AM66 °FPassing clouds.3 mph56%29.80 "HgN/A
12:30 AM68 °FClear.8 mph49%29.80 "Hg10 mi
12:00 AM70 °FClear.6 mph46%29.83 "Hg10 mi
Weather by CustomWeather, © 2016

See weather overviewHow to use our weather pages